Location: Chicoutimi
(48.4330°N, 71.0670°W)
Time: 12:04:12
(UTC-04:00)

ISS - Visible Passes

Search period start: 31 May 2016 00:00
Search period end: 10 June 2016 00:00
Orbit: 402 x 404 km, 51.6° (Epoch: 31 May)

Date Brightness Start Highest point End Pass type
(mag) Time Alt. Az. Time Alt. Az. Time Alt. Az.
31 May -2.5 00:26:47 10° WNW 00:30:00 52° N 00:33:12 10° E visible
31 May -3.0 02:03:17 10° WNW 02:05:59 46° WSW 02:05:59 46° WSW visible
31 May -2.9 21:57:08 10° W 22:00:23 64° NNW 22:03:38 10° ENE visible
31 May -2.3 23:33:56 10° WNW 23:37:07 46° N 23:40:17 10° E visible
01 Jun -3.5 01:10:27 10° WNW 01:13:34 76° WSW 01:13:34 76° WSW visible
01 Jun -2.2 22:41:02 10° WNW 22:44:13 45° N 22:47:23 10° ENE visible
02 Jun -3.2 00:17:39 10° WNW 00:20:56 72° NNE 00:21:51 42° E visible
02 Jun -0.7 01:54:20 10° W 01:54:26 11° W 01:54:26 11° W visible
02 Jun -2.3 21:48:06 10° W 21:51:18 49° N 21:54:30 10° ENE visible
02 Jun -2.7 23:24:50 10° WNW 23:28:04 55° NNE 23:30:23 17° E visible
03 Jun -1.8 01:01:21 10° WNW 01:02:58 25° W 01:02:58 25° W visible
03 Jun -2.3 22:31:58 10° WNW 22:35:09 47° N 22:38:20 10° E visible
04 Jun -3.4 00:08:28 10° WNW 00:11:37 70° SW 00:11:37 70° SW visible
04 Jun -2.2 21:39:02 10° WNW 21:42:12 45° N 21:45:23 10° ENE visible
04 Jun -3.3 23:15:37 10° WNW 23:18:54 79° NNE 23:20:21 30° ESE visible
05 Jun -0.9 00:52:23 10° W 00:52:55 13° W 00:52:55 13° W visible
05 Jun -2.8 22:22:46 10° WNW 22:26:01 59° NNE 22:29:06 11° E visible
05 Jun -2.3 23:59:18 10° WNW 00:01:42 33° WSW 00:01:42 33° WSW visible
06 Jun -2.4 21:29:52 10° WNW 21:33:04 49° N 21:36:16 10° E visible
06 Jun -3.3 23:06:21 10° WNW 23:09:36 62° SSW 23:10:30 41° SE visible
07 Jun -3.4 22:13:27 10° WNW 22:16:45 87° NNE 22:19:20 15° ESE visible
07 Jun -1.4 23:50:21 10° W 23:51:55 18° WSW 23:51:55 18° WSW visible
08 Jun -2.5 22:57:09 10° W 23:00:09 33° SW 23:00:47 30° S visible
09 Jun -3.1 22:04:08 10° WNW 22:07:21 55° SSW 22:09:40 17° SE visible
